sat.trackr.live / text

‹ back to catalog

STARLINK-31573

NORAD 59334 · 2024-057Q

PAYLOAD ACTIVE UNKNOWN

§ Identity

Operator
Country
US
Launch date
2024-03-25
Launch site
AFETR
Launch vehicle
Mass (kg)
RCS (m²)

Purposes: comms

External: N2YO · Heavens-Above · Gunter

§ Orbital elements

Epoch: 2026-09-20T03:31:19.937856Z

Period
94.27 min
Inclination
43.0009°
Eccentricity
0.0001199
Mean motion
15.27578257 rev/d
Perigee alt
482.2 km
Apogee alt
483.9 km
Semi-major
6,861.2 km
B*
5.3273e-5
RAAN
168.4589°
Arg perigee
269.9969°
Mean anomaly
90.0745°
Rev number
13,958

§ Raw data

STARLINK-315731 59334U 24057Q   26263.14675854  .00001204  00000+0  53273-4 0  99912 59334  43.0009 168.4589 0001199 269.9969  90.0745 15.27578257139583

JSON: /api/v1/satellites/59334 · /tle

For live sub-satellite position, see the globe view (requires WebGL).

§ Visibility from observer

Set your observer location to see the next 7 days of passes ≥ 10°. The values pass through the URL so the page stays shareable.

No JS? Fill the form by hand. The geolocation button needs JavaScript.